This is the latest recevied weather packets stored in our database for station/object DM4XI-13. If no packets are shown the sender has not sent any weather packets the latest 10 day(s).
| Time | Temp. | Humidity | Pressure | Rain* | Wind** | Luminosity | Snow |
|---|---|---|---|---|---|---|---|
| 1777192464 | 11.67° C | 47% | 1020.9 hPa | 0 mm | 0.89 m/s, 287° | 468 W/m² | - |
| 1777192402 | 11.67° C | 48% | 1020.9 hPa | 0 mm | 2.24 m/s, 296° | 465 W/m² | - |
| 1777192341 | 11.67° C | 49% | 1020.8 hPa | 0 mm | 0.45 m/s, 18° | 461 W/m² | - |
| 1777192280 | 11.67° C | 49% | 1020.9 hPa | 0 mm | 1.34 m/s, 28° | 462 W/m² | - |
| 1777192219 | 11.67° C | 48% | 1021 hPa | 0 mm | 1.79 m/s, 319° | 458 W/m² | - |
| 1777192158 | 11.67° C | 48% | 1021 hPa | 0 mm | 0.89 m/s, 354° | 457 W/m² | - |
| 1777192097 | 11.67° C | 49% | 1020.9 hPa | 0 mm | 0.89 m/s, 347° | 455 W/m² | - |
| 1777192036 | 11.67° C | 49% | 1020.9 hPa | 0 mm | 1.34 m/s, 341° | 453 W/m² | - |
| 1777191975 | 11.67° C | 50% | 1020.8 hPa | 0 mm | 0.89 m/s, 335° | 450 W/m² | - |
| 1777191914 | 11.11° C | 51% | 1020.7 hPa | 0 mm | 1.34 m/s, 12° | 451 W/m² | - |
| 1777191853 | 11.11° C | 52% | 1020.8 hPa | 0 mm | 0.89 m/s, 34° | 449 W/m² | - |
| 1777191792 | 11.11° C | 51% | 1020.8 hPa | 0 mm | 0 m/s | 444 W/m² | - |
| 1777191731 | 11.67° C | 49% | 1020.9 hPa | 0 mm | 0.45 m/s, 225° | 443 W/m² | - |
| 1777191670 | 11.67° C | 50% | 1020.8 hPa | 0 mm | 0.89 m/s, 356° | 444 W/m² | - |
| 1777191609 | 11.67° C | 49% | 1020.8 hPa | 0 mm | 0.89 m/s, 9° | 441 W/m² | - |
| 1777191548 | 11.67° C | 51% | 1020.8 hPa | 0 mm | 1.34 m/s, 287° | 439 W/m² | - |
| 1777191487 | 11.11° C | 50% | 1020.9 hPa | 0 mm | 1.79 m/s, 306° | 437 W/m² | - |
| 1777191426 | 11.11° C | 51% | 1020.7 hPa | 0 mm | 0.45 m/s, 346° | 436 W/m² | - |
| 1777191365 | 11.11° C | 51% | 1020.8 hPa | 0 mm | 0.45 m/s, 80° | 433 W/m² | - |
| 1777191304 | 10.56° C | 50% | 1020.9 hPa | 0 mm | 0.45 m/s, 157° | 431 W/m² | - |
| 1777191243 | 10.56° C | 51% | 1020.8 hPa | 0 mm | 0.89 m/s, 12° | 430 W/m² | - |
| 1777191182 | 10.56° C | 51% | 1020.9 hPa | 0 mm | 1.34 m/s, 296° | 427 W/m² | - |
| 1777191121 | 11.11° C | 51% | 1020.8 hPa | 0 mm | 0.89 m/s, 290° | 424 W/m² | - |
| 1777191060 | 11.11° C | 50% | 1020.8 hPa | 0 mm | 1.79 m/s, 11° | 419 W/m² | - |
| 1777190999 | 11.11° C | 50% | 1020.8 hPa | 0 mm | 1.34 m/s, 22° | 416 W/m² | - |
* Rain latest hour (hover to see other rain measurements)
** Current wind speed in m/s (hover to see current wind gust speed)